North Adams, MA

11:54 PM EDT on July 23, 2017 (GMT -0400)
Harriman And West

Weather History for KAQW - April, 2014

Change the Weather History Date:

Saturday, April 26, 2014

  Actual Average Record
Temperature  
Mean Temperature 47 °F -  
Max Temperature 55 °F 59 °F 82 °F (2011)
Min Temperature 39 °F 35 °F 27 °F (2001)
Degree Days  
Heating Degree Days 18    
Moisture  
Dew Point 40 °F    
Average Humidity 83    
Maximum Humidity 96    
Minimum Humidity 53    
Precipitation  
Precipitation 0.51 in - - ()
Sea Level Pressure  
Sea Level Pressure 29.78 in    
Wind  
Wind Speed 4 mph (East)    
Max Wind Speed 9 mph    
Max Gust Speed -    
Visibility 8 miles    
Events Rain , Thunderstorm    
Averages and records for this station are not official NWS values.
T = Trace of Precipitation, MM = Missing Value Source: NWS Daily Summary

Daily Weather History Graph

Daily Weather History Graph

Search for Another Location

Airport or City:

Trip Planner

Search our weather history database for the weather conditions in past years. The results will help you decide how hot, cold, wet, or windy it might be!

Date:

Astronomy

Apr. 26, 2014 Rise Set
Actual Time 5:54 AM EDT 7:47 PM EDT
Civil Twilight 5:23 AM EDT 8:17 PM EDT
Nautical Twilight 4:47 AM EDT 8:54 PM EDT
Astronomical Twilight 4:06 AM EDT 9:35 PM EDT
Moon 4:21 AM EDT (4/26) 5:09 PM EDT (4/26)
Length of Visible Light 14h 53m
Length of Day
13h 53m
Waning Crescent, 8% of the Moon is Illuminated
Apr 26
Waning Crescent
Apr 29
New
May 6
First Quarter
May 14
Full
May 21
Last Quarter

Hourly Weather History & Observations

Time (EDT) Temp. Windchill Dew Point Humidity Pressure Visibility Wind Dir Wind Speed Gust Speed Precip Events Conditions
12:52 AM 45.0 °F - 41.0 °F 86% 29.78 in 8.0 mi Calm Calm - 0.04 in Rain Light Rain
2:52 AM 43.0 °F 37.7 °F 36.0 °F 76% 29.75 in 10.0 mi East 9.2 mph - 0.04 in Rain Light Rain
3:52 AM 41.0 °F 36.4 °F 37.0 °F 86% 29.76 in 8.0 mi ENE 6.9 mph - 0.06 in Rain Light Rain
4:52 AM 39.9 °F 36.7 °F 37.0 °F 89% 29.75 in 5.0 mi Variable 4.6 mph - 0.06 in Rain Light Rain
5:03 AM 39.9 °F 35.8 °F 37.0 °F 89% 29.74 in 5.0 mi East 5.8 mph - 0.01 in Rain Light Rain
5:11 AM 41.0 °F 35.8 °F 37.9 °F 89% 29.74 in 7.0 mi East 8.1 mph - 0.01 in Rain Light Rain
5:40 AM 41.0 °F 37.1 °F 37.9 °F 89% 29.75 in 6.0 mi East 5.8 mph - 0.03 in Rain Light Rain
5:52 AM 41.0 °F 37.1 °F 37.9 °F 89% 29.76 in 7.0 mi East 5.8 mph - 0.04 in Rain Light Rain
6:10 AM 41.0 °F 37.1 °F 37.0 °F 86% 29.75 in 7.0 mi East 5.8 mph - 0.02 in Rain Light Rain
6:23 AM 41.0 °F 37.1 °F 37.0 °F 86% 29.75 in 7.0 mi ENE 5.8 mph - 0.02 in Rain Light Rain
6:52 AM 41.0 °F 37.1 °F 37.9 °F 89% 29.77 in 6.0 mi Variable 5.8 mph - 0.04 in Rain Light Rain
7:52 AM 41.0 °F 39.0 °F 37.9 °F 89% 29.77 in 5.0 mi ENE 3.5 mph - 0.02 in Rain Light Rain
8:52 AM 41.0 °F - 39.0 °F 93% 29.78 in 6.0 mi Calm Calm - 0.01 in   Overcast
9:52 AM 42.1 °F - 39.9 °F 92% 29.79 in 9.0 mi Calm Calm - 0.00 in Rain Light Rain
10:13 AM 42.1 °F - 39.9 °F 92% 29.78 in 5.0 mi Calm Calm - 0.01 in Rain Light Rain
10:52 AM 43.0 °F 41.3 °F 39.9 °F 89% 29.79 in 8.0 mi ESE 3.5 mph - 0.01 in   Overcast
12:52 PM 46.0 °F - 41.0 °F 83% 29.78 in 10.0 mi Calm Calm - N/A   Overcast
1:52 PM 48.9 °F - 39.9 °F 71% 29.76 in 10.0 mi Calm Calm - N/A   Overcast
2:11 PM 48.9 °F - 41.0 °F 74% 29.74 in 10.0 mi Calm Calm - N/A   Overcast
2:52 PM 52.0 °F - 41.0 °F 66% 29.75 in 10.0 mi NW 3.5 mph - N/A   Overcast
3:52 PM 52.0 °F - 39.0 °F 61% 29.74 in 10.0 mi Calm Calm - N/A   Overcast
4:52 PM 55.0 °F - 37.9 °F 53% 29.73 in 10.0 mi West 4.6 mph - N/A   Scattered Clouds
5:52 PM 53.1 °F - 37.9 °F 57% 29.74 in 10.0 mi Calm Calm - N/A   Mostly Cloudy
6:52 PM 51.1 °F - 43.0 °F 74% 29.76 in 10.0 mi SW 3.5 mph - 0.01 in Rain Light Rain
7:47 PM 48.2 °F - 44.6 °F 87% 29.79 in 4.0 mi West 6.9 mph - 0.06 in Rain Light Rain
7:52 PM 48.0 °F - 44.1 °F 86% 29.81 in 4.0 mi West 6.9 mph - 0.07 in Rain Rain
8:17 PM 45.0 °F 42.6 °F 41.0 °F 86% 29.81 in 4.0 mi Variable 4.6 mph - 0.06 in Rain , Thunderstorm Rain
8:32 PM 44.1 °F 42.5 °F 42.1 °F 93% 29.82 in 10.0 mi Variable 3.5 mph - 0.07 in Rain Light Rain
8:52 PM 45.0 °F 42.6 °F 42.1 °F 90% 29.84 in 10.0 mi SSW 4.6 mph - 0.07 in   Overcast
9:52 PM 44.1 °F - 43.0 °F 96% 29.86 in 10.0 mi Calm Calm - 0.01 in   Overcast
10:52 PM 44.1 °F 42.5 °F 41.0 °F 89% 29.86 in 10.0 mi West 3.5 mph - N/A   Overcast
11:52 PM 44.1 °F 40.1 °F 39.0 °F 82% 29.86 in 10.0 mi West 6.9 mph - 0.03 in   Overcast